[[{"header":{"parameterUnit":"m.s-1","parameterCategory":1,"la1":30.2991,"la2":30.254,"lo1":-89.0895,"lo2":-89.0444,"dy":0.0017,"dx":0.0017,"nx":28,"ny":28,"refTime":"2025-07-28T21:00:00:Z","depth":0,"parameterNumber":2,"parameterNumberName":"U-component_of_WINDS"},"data":[0,0,0,0,0,0,0,0,0,0,0,0,0,0,0,0,0,0,0,0,0,0,0,0,0,0,0,0,0,0,0,0,0,0,0,0,0,0,0,0,0,0,0,0,0,0,0,0,0,0,0,0,0,0,0,0,0,0,2.7355,2.7356,0,2.7399,2.7399,2.74,2.7309,2.7306,2.7303,2.73,2.7346,2.735,2.7353,0,0,0,0,0,0,0,0,0,0,0,0,0,2.7197,2.7201,2.7355,2.7356,2.7356,2.7399,2.7399,2.74,2.7309,2.7306,2.7302,2.7299,2.7344,2.7349,2.7354,0,0,0,0,0,0,0,0,0,0,0,0,0,2.7256,2.7202,2.7355,2.7316,2.7313,2.7398,2.7399,2.74,2.731,2.7306,2.7301,2.7297,2.7343,2.7349,2.7354,2.748,0,0,2.7373,2.7375,0,0,0,0,0,0,0,0,2.7253,2.7262,2.7321,2.7319,2.7316,2.7344,2.736,2.7427,2.7311,2.7311,2.73,2.7295,2.7349,2.7354,2.7372,2.7482,2.7484,2.7373,2.7377,2.7379,2.7381,0,0,0,0,0,0,0,2.7249,2.7259,2.7372,2.7322,2.7319,2.7298,2.7301,2.7372,2.7354,2.7311,2.7305,2.7311,2.7346,2.7366,2.7372,2.7484,2.7373,2.7378,2.7382,2.7384,2.7704,2.7709,0,0,0,0,0,0,2.7249,2.7257,2.7371,2.7374,2.7273,2.7304,2.7308,2.7339,2.7353,2.7351,2.7315,2.7307,2.7358,2.7365,2.7373,2.7524,2.7379,2.7385,2.7388,2.7699,2.7705,2.771,0,0,0,0,0,0,2.7246,2.726,2.7369,2.7313,2.7326,2.7312,2.7348,2.7343,2.7362,2.7356,2.7353,2.7338,2.7355,2.7365,2.7455,2.7524,2.7387,2.7393,2.7693,2.7701,2.7708,2.7825,0,0,0,0,0,0,2.7242,2.726,2.7306,2.7315,2.7329,2.7449,2.7352,2.7347,2.7373,2.7363,2.7377,2.7375,2.7352,2.7447,2.7461,2.753,2.7397,2.7687,2.7697,2.7705,2.7815,2.7836,2.7853,0,0,0,0,0,2.7237,2.7337,2.7309,2.7323,2.7387,2.7453,2.7461,2.7433,2.7379,2.7426,2.7423,2.7375,2.7514,2.7456,2.7472,2.7544,2.7682,2.7694,2.7705,2.7806,2.7832,2.7853,0,0,0,0,0,0,2.7336,2.7337,2.7306,2.7412,2.7434,2.7438,2.7497,2.746,2.7497,2.7486,2.7449,2.7453,2.7551,2.7556,2.7492,2.7668,2.7589,2.7604,2.7662,2.7685,2.7704,2.7702,2.7402,0,0,0,0,0,2.737,2.7423,2.7422,2.7515,2.7528,2.7511,2.7539,2.7515,2.7536,2.7544,2.7547,2.757,2.7619,2.7652,2.7696,2.7815,2.7819,2.7872,2.7891,2.7907,2.7921,2.7988,2.8013,2.7747,2.7747,2.7746,0,0,2.7441,2.7448,2.7484,2.7535,2.7549,2.7607,2.7519,2.7583,2.7626,2.7554,2.764,2.7643,2.7666,2.7772,2.7819,2.7779,2.7995,2.7921,2.7934,2.7939,2.8002,2.8028,2.805,2.7754,2.7753,2.7752,0,0,2.76,2.761,2.7691,2.7707,2.773,2.7718,2.7738,2.7749,2.7749,2.7835,2.7783,2.7834,2.7918,2.7938,2.7959,2.8131,2.809,2.8146,2.8247,2.8313,2.8334,2.8352,2.8417,2.844,2.8159,2.816,2.816,0,2.7686,2.777,2.7737,2.7806,2.7832,2.777,2.7853,2.7871,2.7907,2.7927,2.7882,2.7989,2.8,2.8112,2.8154,2.8172,2.8195,2.8145,2.8333,2.8352,2.8368,2.843,2.8454,2.8167,2.8166,2.8165,2.8165,0,2.7877,2.7936,2.7999,2.8037,2.8069,2.8145,2.8125,2.8162,2.8136,2.8131,2.8221,2.8232,2.828,2.8304,2.8278,2.8413,2.8389,2.8339,2.826,2.8402,2.8459,2.8482,2.8177,2.8174,2.8172,2.817,0,0,2.8099,2.812,2.8144,2.8162,2.8184,2.823,2.8304,2.8351,2.8385,2.8413,2.8476,2.8551,2.8506,2.853,2.8507,2.8565,2.8705,2.8508,2.8508,2.8548,2.8859,2.8898,2.8925,2.8677,2.8681,2.8684,2.8858,0,2.826,2.8388,2.8362,2.8488,2.8545,2.8488,2.8553,2.8575,2.8572,2.8621,2.8617,2.8672,2.8607,2.8622,2.8677,2.8676,2.8767,2.8663,2.8738,2.8741,2.8737,2.8955,2.8995,2.9159,2.888,2.8883,2.8886,0,2.8465,2.8502,2.8634,2.865,2.8673,2.8732,2.8776,2.8822,2.8846,2.884,2.887,2.8836,2.8912,2.8831,2.8937,2.8867,2.8896,2.8901,2.8906,2.8914,2.8824,2.8972,2.9209,2.9235,2.892,2.8917,2.8915,0,2.8619,2.8701,2.8792,2.8809,2.8829,2.8873,2.8883,2.8903,2.8935,2.8972,2.8993,2.9039,2.9065,2.9102,2.9084,2.9025,2.9195,2.911,2.9194,2.9195,2.9234,2.9232,2.9483,2.9248,2.9248,2.9248,2.9247,0,2.8803,2.8887,2.8862,2.8918,2.9012,2.8981,2.9075,2.9079,2.9098,2.9155,2.9108,2.9164,2.9134,2.9187,2.9173,2.9265,2.9276,2.9276,2.9271,2.9282,2.9282,2.9302,2.9291,2.9254,2.9253,2.9251,2.925,0,2.8991,2.8977,2.9073,2.9085,2.9091,2.9159,2.917,2.9224,2.9218,2.9292,2.9308,2.9299,2.936,2.9345,2.941,2.9401,2.9519,2.9498,2.9511,2.9507,2.9593,2.9587,2.9868,2.9905,2.9643,2.9646,2.9648,0,2.911,2.9174,2.9194,2.9229,2.9244,2.9301,2.9333,2.9307,2.9343,2.9378,2.9428,2.9485,2.9529,2.963,2.9631,2.9682,2.9664,2.9759,2.9672,2.9681,2.967,2.9668,2.9676,2.9778,2.9781,2.9783,2.9785,0,2.9325,2.9317,2.9365,2.9413,2.9453,2.9489,2.9521,2.9553,2.9529,2.9572,2.9634,2.9669,2.9738,2.9796,2.9844,2.9856,2.9819,2.9813,2.9835,2.9848,2.9854,2.9855,2.9562,2.9807,2.9804,2.9803,2.9802,2.9801,2.9485,2.9541,2.9565,2.9621,2.9643,2.9675,2.9727,2.9729,2.978,2.9834,2.9816,2.9888,2.9914,2.9975,2.9993,3.005,3.0014,3.0046,3.0055,3.0064,3.0077,2.9843,3.0058,3.0058,3.0057,3.0057,3.0056,0,2.9701,2.9714,2.9767,2.9814,2.9859,2.9819,2.9853,2.9895,2.9959,2.9986,3.0032,3.0105,3.0163,3.0169,3.0223,3.0268,3.0253,3.0284,3.0282,3.0286,3.0104,3.008,3.0296,3.0296,3.0296,3.0296,3.0296,3.0296,2.9819,2.9912,2.9907,3.0011,3.0024,3.0095,3.0118,3.0148,3.0171,3.0255,3.0303,3.0306,3.0327,3.0383,3.0434,3.0435,3.0459,3.0497,3.0492,3.0322,3.0298,3.0276,3.0253,3.0502,3.0502,3.0669,3.0671,3.0672]},{"header":{"parameterUnit":"m.s-1","parameterCategory":1,"la1":30.2991,"la2":30.254,"lo1":-89.0895,"lo2":-89.0444,"dy":0.0017,"dx":0.0017,"nx":28,"ny":28,"refTime":"2025-07-28T21:00:00:Z","depth":0,"parameterNumber":3,"parameterNumberName":"V-component_of_WINDS"},"data":[0,0,0,0,0,0,0,0,0,0,0,0,0,0,0,0,0,0,0,0,0,0,0,0,0,0,0,0,0,0,0,0,0,0,0,0,0,0,0,0,0,0,0,0,0,0,0,0,0,0,0,0,0,0,0,0,0,0,-0.9742,-0.9742,0,-0.9744,-0.9744,-0.9744,-0.9762,-0.9763,-0.9763,-0.9763,-0.9762,-0.9762,-0.9761,0,0,0,0,0,0,0,0,0,0,0,0,0,-0.9752,-0.9752,-0.9742,-0.9742,-0.9742,-0.9744,-0.9744,-0.9744,-0.9762,-0.9763,-0.9763,-0.9764,-0.9762,-0.9762,-0.9761,0,0,0,0,0,0,0,0,0,0,0,0,0,-0.975,-0.9752,-0.9742,-0.9751,-0.9752,-0.9744,-0.9744,-0.9744,-0.9762,-0.9763,-0.9763,-0.9764,-0.9763,-0.9762,-0.9761,-0.9743,0,0,-0.9759,-0.9759,0,0,0,0,0,0,0,0,-0.975,-0.975,-0.975,-0.9751,-0.9752,-0.9753,-0.9747,-0.9743,-0.9762,-0.9758,-0.9763,-0.9764,-0.9759,-0.9758,-0.9757,-0.9743,-0.9743,-0.9759,-0.9759,-0.9758,-0.9758,0,0,0,0,0,0,0,-0.975,-0.975,-0.9742,-0.975,-0.9751,-0.9755,-0.9755,-0.9746,-0.9754,-0.9758,-0.976,-0.976,-0.9759,-0.9757,-0.9757,-0.9743,-0.9759,-0.9758,-0.9758,-0.9758,-0.9713,-0.9712,0,0,0,0,0,0,-0.9749,-0.975,-0.9742,-0.9742,-0.9753,-0.9754,-0.9754,-0.9752,-0.9754,-0.9755,-0.9759,-0.9761,-0.9758,-0.9758,-0.9757,-0.9735,-0.9758,-0.9758,-0.9757,-0.9713,-0.9713,-0.9712,0,0,0,0,0,0,-0.9749,-0.9749,-0.9742,-0.9746,-0.9746,-0.9753,-0.975,-0.9752,-0.975,-0.9755,-0.9756,-0.9756,-0.9759,-0.9758,-0.9746,-0.9735,-0.9757,-0.9757,-0.9714,-0.9713,-0.9712,-0.9691,0,0,0,0,0,0,-0.975,-0.9748,-0.9742,-0.9746,-0.9746,-0.9732,-0.9749,-0.9751,-0.9749,-0.9751,-0.9753,-0.9753,-0.9759,-0.9747,-0.9745,-0.9735,-0.9756,-0.9715,-0.9714,-0.9712,-0.9692,-0.9689,-0.9686,0,0,0,0,0,-0.975,-0.9735,-0.9742,-0.9741,-0.9738,-0.9731,-0.9731,-0.9739,-0.9748,-0.9741,-0.9745,-0.9753,-0.9737,-0.9746,-0.9744,-0.9733,-0.9716,-0.9714,-0.9713,-0.9694,-0.969,-0.9686,0,0,0,0,0,0,-0.9728,-0.9736,-0.9743,-0.9729,-0.973,-0.9735,-0.9726,-0.9734,-0.9731,-0.9733,-0.9742,-0.9742,-0.9729,-0.973,-0.974,-0.9715,-0.9728,-0.9726,-0.9714,-0.971,-0.9707,-0.9707,-0.9755,0,0,0,0,0,-0.9722,-0.9717,-0.9724,-0.9711,-0.9711,-0.9719,-0.9716,-0.9722,-0.9723,-0.9723,-0.9725,-0.9724,-0.9719,-0.9715,-0.971,-0.9693,-0.9693,-0.9685,-0.9681,-0.9679,-0.9676,-0.9667,-0.9663,-0.9706,-0.9706,-0.9706,0,0,-0.9709,-0.9713,-0.9709,-0.9707,-0.9708,-0.9702,-0.9719,-0.9711,-0.9706,-0.9721,-0.971,-0.9712,-0.9712,-0.9697,-0.9691,-0.9697,-0.9665,-0.9677,-0.9674,-0.9673,-0.9665,-0.966,-0.9657,-0.9705,-0.9705,-0.9705,0,0,-0.9682,-0.9685,-0.9674,-0.9675,-0.9677,-0.9682,-0.968,-0.9683,-0.9685,-0.9675,-0.9686,-0.968,-0.9671,-0.967,-0.9668,-0.9641,-0.9649,-0.964,-0.9622,-0.9613,-0.9609,-0.9606,-0.9596,-0.9592,-0.9638,-0.9637,-0.9637,0,-0.9665,-0.9657,-0.9667,-0.966,-0.9658,-0.9673,-0.9662,-0.9662,-0.9661,-0.966,-0.9668,-0.9656,-0.9657,-0.9642,-0.9636,-0.9635,-0.9631,-0.9639,-0.9609,-0.9606,-0.9604,-0.9594,-0.959,-0.9636,-0.9636,-0.9637,-0.9637,0,-0.9635,-0.963,-0.9621,-0.9621,-0.9619,-0.961,-0.9618,-0.9614,-0.9621,-0.9625,-0.9614,-0.9616,-0.9612,-0.9609,-0.9615,-0.9595,-0.9599,-0.9608,-0.9621,-0.9598,-0.9589,-0.9585,-0.9634,-0.9635,-0.9635,-0.9636,0,0,-0.9593,-0.9601,-0.9597,-0.9597,-0.9601,-0.9596,-0.9587,-0.9584,-0.958,-0.958,-0.9572,-0.9564,-0.9573,-0.9571,-0.9577,-0.9569,-0.9547,-0.9579,-0.9579,-0.9572,-0.9523,-0.9515,-0.9511,-0.9553,-0.9552,-0.9551,-0.9523,0,-0.9566,-0.9552,-0.9562,-0.9545,-0.954,-0.9554,-0.9546,-0.9547,-0.9551,-0.9546,-0.955,-0.9544,-0.9556,-0.9555,-0.9548,-0.9551,-0.9537,-0.9553,-0.9544,-0.9543,-0.9542,-0.9506,-0.9498,-0.9471,-0.952,-0.9519,-0.9519,0,-0.9532,-0.9531,-0.9515,-0.9519,-0.9517,-0.951,-0.9508,-0.9504,-0.9505,-0.9508,-0.9506,-0.9515,-0.9506,-0.952,-0.9507,-0.9518,-0.9515,-0.9516,-0.9515,-0.9513,-0.9528,-0.9502,-0.9463,-0.9458,-0.9513,-0.9513,-0.9514,0,-0.9502,-0.9496,-0.9486,-0.9486,-0.9491,-0.9486,-0.9487,-0.9489,-0.9487,-0.9485,-0.9483,-0.948,-0.9478,-0.9475,-0.9482,-0.9492,-0.9467,-0.9482,-0.9468,-0.9468,-0.9461,-0.9461,-0.9419,-0.9462,-0.9462,-0.9462,-0.9462,0,-0.947,-0.9459,-0.9472,-0.9465,-0.9453,-0.9465,-0.9452,-0.9455,-0.9457,-0.945,-0.9463,-0.9456,-0.9466,-0.9461,-0.9466,-0.9454,-0.9453,-0.9454,-0.9456,-0.9452,-0.9452,-0.9449,-0.9451,-0.9461,-0.9461,-0.9461,-0.9461,0,-0.9433,-0.9442,-0.9431,-0.9437,-0.9439,-0.9429,-0.9434,-0.9428,-0.9433,-0.9425,-0.9423,-0.9431,-0.9425,-0.9432,-0.9426,-0.943,-0.9413,-0.9418,-0.9413,-0.9413,-0.9399,-0.9399,-0.9352,-0.9346,-0.9394,-0.9393,-0.9393,0,-0.9411,-0.9403,-0.9409,-0.9406,-0.9407,-0.9402,-0.94,-0.9411,-0.9408,-0.9409,-0.9402,-0.9397,-0.9394,-0.9383,-0.9388,-0.9383,-0.9387,-0.9371,-0.9386,-0.9383,-0.9385,-0.9385,-0.9384,-0.9367,-0.9367,-0.9366,-0.9366,0,-0.9371,-0.9376,-0.9373,-0.9371,-0.9369,-0.9368,-0.9368,-0.9364,-0.9376,-0.9372,-0.9366,-0.9364,-0.9358,-0.9353,-0.935,-0.9351,-0.9359,-0.9361,-0.9358,-0.9353,-0.935,-0.935,-0.9402,-0.9362,-0.9362,-0.9362,-0.9363,-0.9363,-0.934,-0.9334,-0.9337,-0.9333,-0.9334,-0.9334,-0.9328,-0.9333,-0.9329,-0.9326,-0.9333,-0.9325,-0.9326,-0.9323,-0.9323,-0.9317,-0.9324,-0.9319,-0.9317,-0.9315,-0.9313,-0.9353,-0.9317,-0.9317,-0.9317,-0.9317,-0.9317,0,-0.93,-0.9303,-0.9299,-0.9299,-0.9296,-0.9307,-0.9307,-0.9303,-0.9297,-0.9298,-0.9294,-0.9288,-0.9283,-0.9287,-0.9283,-0.9277,-0.9281,-0.9275,-0.9275,-0.9275,-0.9308,-0.9311,-0.9272,-0.9272,-0.9272,-0.9272,-0.9272,-0.9272,-0.9278,-0.9268,-0.9273,-0.9263,-0.9266,-0.9259,-0.9258,-0.9258,-0.9259,-0.9251,-0.9247,-0.9251,-0.9253,-0.9249,-0.9244,-0.9246,-0.9243,-0.9236,-0.9238,-0.9268,-0.9273,-0.9277,-0.928,-0.9235,-0.9235,-0.9206,-0.9205,-0.9205]}]]